Change the Weather History Date:

Friday, December 28, 2012

  Actual Average Record
Temperature  
Mean Temperature 10 °F -  
Max Temperature 14 °F 16 °F 47 °F (1979)
Min Temperature 5 °F 0 °F -23 °F (1949)
Degree Days  
Heating Degree Days 56    
Moisture  
Dew Point 6 °F    
Average Humidity 87    
Maximum Humidity 92    
Minimum Humidity 79    
Precipitation  
Precipitation 0.00 in - - ()
Sea Level Pressure  
Sea Level Pressure 30.06 in    
Wind  
Wind Speed 6 mph (SSW)    
Max Wind Speed 9 mph    
Max Gust Speed -    
Visibility 7 miles    
Events Snow    
Averages and records for this station are not official NWS values.
T = Trace of Precipitation, MM = Missing Value Source: NWS Daily Summary

Daily Weather History Graph

Daily Weather History Graph

Search for Another Location

Airport or City:

Trip Planner

Search our weather history database for the weather conditions in past years. The results will help you decide how hot, cold, wet, or windy it might be!

Date:

Astronomy

Dec. 28, 2012 Rise Set
Actual Time 8:20 AM CST 4:42 PM CST
Civil Twilight 7:44 AM CST 5:18 PM CST
Nautical Twilight 7:04 AM CST 5:58 PM CST
Astronomical Twilight 6:26 AM CST 6:36 PM CST
Moon 5:25 PM CST (12/28) 8:11 AM CST (12/28)
Length of Visible Light 9h 34m
Length of Day
8h 21m
Full, 100% of the Moon is Illuminated
Dec 28
Full
Jan 4
Last Quarter
Jan 11
New
Jan 18
First Quarter
Jan 26
Full

Hourly Weather History & Observations

Time (CST) Temp. Windchill Dew Point Humidity Pressure Visibility Wind Dir Wind Speed Gust Speed Precip Events Conditions
12:15 AM 10.4 °F 4.0 °F 8.6 °F 92% 30.15 in 5.0 mi South 3.5 mph - N/A Snow Light Snow
12:35 AM 10.4 °F 4.0 °F 8.6 °F 92% 30.14 in 4.0 mi South 3.5 mph - N/A Snow Light Snow
12:55 AM 10.4 °F 4.0 °F 8.6 °F 92% 30.14 in 4.0 mi South 3.5 mph - N/A Snow Light Snow
1:15 AM 10.4 °F 2.2 °F 8.6 °F 92% 30.14 in 4.0 mi South 4.6 mph - N/A Snow Light Snow
1:35 AM 10.4 °F 2.2 °F 8.6 °F 92% 30.13 in 4.0 mi South 4.6 mph - N/A Snow Light Snow
1:55 AM 10.4 °F 4.0 °F 8.6 °F 92% 30.13 in 5.0 mi South 3.5 mph - N/A   Overcast
2:15 AM 10.4 °F 2.2 °F 8.6 °F 92% 30.13 in 5.0 mi South 4.6 mph - N/A   Overcast
2:35 AM 10.4 °F 2.2 °F 8.6 °F 92% 30.13 in 5.0 mi South 4.6 mph - N/A   Overcast
2:55 AM 8.6 °F 0.1 °F 6.8 °F 92% 30.12 in 5.0 mi South 4.6 mph - N/A   Mostly Cloudy
3:15 AM 8.6 °F -1.3 °F 6.8 °F 92% 30.12 in 5.0 mi South 5.8 mph - N/A   Mostly Cloudy
3:35 AM 6.8 °F -2.0 °F 5.0 °F 92% 30.12 in 7.0 mi South 4.6 mph - N/A   Scattered Clouds
3:55 AM 6.8 °F -3.5 °F 5.0 °F 92% 30.11 in 7.0 mi South 5.8 mph - N/A   Mostly Cloudy
4:15 AM 5.0 °F -6.9 °F 3.2 °F 92% 30.11 in 8.0 mi South 6.9 mph - N/A   Overcast
4:35 AM 5.0 °F -6.9 °F 1.4 °F 85% 30.10 in 10.0 mi South 6.9 mph - N/A   Overcast
4:55 AM 5.0 °F -6.9 °F 1.4 °F 85% 30.10 in 10.0 mi South 6.9 mph - N/A   Scattered Clouds
5:15 AM 5.0 °F -4.1 °F 1.4 °F 85% 30.10 in 10.0 mi South 4.6 mph - N/A   Mostly Cloudy
5:35 AM 5.0 °F -4.1 °F 1.4 °F 85% 30.09 in 10.0 mi South 4.6 mph - N/A   Overcast
5:55 AM 6.8 °F -3.5 °F 5.0 °F 92% 30.09 in 8.0 mi South 5.8 mph - N/A   Overcast
6:15 AM 6.8 °F -4.8 °F 5.0 °F 92% 30.09 in 4.0 mi South 6.9 mph - N/A Snow Light Snow
6:35 AM 6.8 °F -3.5 °F 5.0 °F 92% 30.09 in 5.0 mi South 5.8 mph - N/A   Mostly Cloudy
6:55 AM 6.8 °F -2.0 °F 5.0 °F 92% 30.09 in 5.0 mi South 4.6 mph - N/A   Clear
7:15 AM 6.8 °F -2.0 °F 3.2 °F 85% 30.09 in 7.0 mi South 4.6 mph - N/A   Mostly Cloudy
7:55 AM 6.8 °F -5.9 °F 3.2 °F 85% 30.09 in 3.0 mi South 8.1 mph - N/A Snow Light Snow
8:15 AM 6.8 °F -3.5 °F 5.0 °F 92% 30.09 in 5.0 mi South 5.8 mph - N/A Snow Light Snow
8:35 AM 6.8 °F -4.8 °F 5.0 °F 92% 30.09 in 9.0 mi South 6.9 mph - N/A   Scattered Clouds
8:55 AM 8.6 °F -1.3 °F 5.0 °F 85% 30.09 in 4.0 mi SSW 5.8 mph - N/A Snow Light Snow
9:15 AM 6.8 °F -3.5 °F 5.0 °F 92% 30.09 in 5.0 mi SSW 5.8 mph - N/A   Overcast
9:35 AM 6.8 °F -0.1 °F 5.0 °F 92% 30.10 in 4.0 mi South 3.5 mph - N/A Snow Light Snow
9:55 AM 6.8 °F -4.8 °F 5.0 °F 92% 30.10 in 4.0 mi SSW 6.9 mph - N/A   Overcast
10:15 AM 8.6 °F -2.6 °F 5.0 °F 85% 30.09 in 3.0 mi SSW 6.9 mph - N/A   Overcast
10:35 AM 8.6 °F -3.7 °F 5.0 °F 85% 30.09 in 6.0 mi SSW 8.1 mph - N/A   Mostly Cloudy
10:55 AM 8.6 °F -2.6 °F 5.0 °F 85% 30.09 in 7.0 mi SSW 6.9 mph - N/A   Scattered Clouds
11:15 AM 8.6 °F -1.3 °F 5.0 °F 85% 30.08 in 5.0 mi SSW 5.8 mph - N/A   Scattered Clouds
11:35 AM 8.6 °F -3.7 °F 5.0 °F 85% 30.07 in 8.0 mi South 8.1 mph - N/A   Clear
12:15 PM 8.6 °F -4.7 °F 5.0 °F 85% 30.06 in 9.0 mi SSW 9.2 mph - N/A   Clear
12:35 PM 8.6 °F -3.7 °F 5.0 °F 85% 30.05 in 9.0 mi South 8.1 mph - N/A   Clear
12:55 PM 8.6 °F -4.7 °F 5.0 °F 85% 30.04 in 5.0 mi South 9.2 mph - N/A   Clear
1:15 PM 10.4 °F -1.5 °F 6.8 °F 85% 30.04 in 8.0 mi SSW 8.1 mph - N/A   Clear
1:35 PM 10.4 °F -1.5 °F 6.8 °F 85% 30.03 in 6.0 mi South 8.1 mph - N/A   Haze
1:55 PM 10.4 °F -1.5 °F 6.8 °F 85% 30.03 in 9.0 mi SSW 8.1 mph - N/A   Clear
2:15 PM 12.2 °F 0.7 °F 8.6 °F 85% 30.03 in 9.0 mi SSW 8.1 mph - N/A   Clear
2:35 PM 14.0 °F 2.0 °F 8.6 °F 79% 30.02 in 9.0 mi South 9.2 mph - N/A   Mostly Cloudy
2:55 PM 14.0 °F 3.9 °F 8.6 °F 79% 30.02 in 9.0 mi SSW 6.9 mph - N/A   Scattered Clouds
3:15 PM 14.0 °F 2.0 °F 8.6 °F 79% 30.02 in 10.0 mi South 9.2 mph - N/A   Clear
3:35 PM 14.0 °F 2.9 °F 8.6 °F 79% 30.02 in 10.0 mi South 8.1 mph - N/A   Clear
3:55 PM 12.2 °F 1.7 °F 8.6 °F 85% 30.03 in 9.0 mi SSW 6.9 mph - N/A   Clear
4:15 PM 10.4 °F 0.8 °F 6.8 °F 85% 30.02 in 9.0 mi South 5.8 mph - N/A   Clear
4:35 PM 8.6 °F -1.3 °F 5.0 °F 85% 30.02 in 8.0 mi SSW 5.8 mph - N/A   Clear
4:55 PM 8.6 °F 0.1 °F 5.0 °F 85% 30.03 in 8.0 mi SW 4.6 mph - N/A   Clear
5:15 PM 6.8 °F -3.5 °F 5.0 °F 92% 30.03 in 9.0 mi SW 5.8 mph - N/A   Partly Cloudy
5:35 PM 6.8 °F -3.5 °F 5.0 °F 92% 30.02 in 10.0 mi SW 5.8 mph - N/A   Scattered Clouds
5:55 PM 6.8 °F -3.5 °F 5.0 °F 92% 30.02 in 10.0 mi SW 5.8 mph - N/A   Partly Cloudy
6:15 PM 6.8 °F -4.8 °F 3.2 °F 85% 30.02 in 10.0 mi SSW 6.9 mph - N/A   Scattered Clouds
6:35 PM 6.8 °F -4.8 °F 5.0 °F 92% 30.02 in 10.0 mi SSW 6.9 mph - N/A   Scattered Clouds
6:55 PM 10.4 °F -0.4 °F 6.8 °F 85% 30.02 in 10.0 mi SW 6.9 mph - N/A   Partly Cloudy
7:15 PM 10.4 °F -0.4 °F 6.8 °F 85% 30.02 in 8.0 mi SSW 6.9 mph - N/A Snow Light Snow
7:35 PM 10.4 °F -1.5 °F 6.8 °F 85% 30.02 in 6.0 mi SSW 8.1 mph - N/A Snow Light Snow
7:55 PM 10.4 °F -1.5 °F 8.6 °F 92% 30.01 in 4.0 mi SW 8.1 mph - N/A Snow Light Snow
8:15 PM 10.4 °F -0.4 °F 8.6 °F 92% 30.01 in 4.0 mi SSW 6.9 mph - N/A Snow Light Snow
8:35 PM 10.4 °F 0.8 °F 8.6 °F 92% 30.01 in 6.0 mi SSW 5.8 mph - N/A Snow Light Snow
8:55 PM 10.4 °F 0.8 °F 8.6 °F 92% 30.00 in 5.0 mi SSW 5.8 mph - N/A Snow Light Snow
9:15 PM 12.2 °F 1.7 °F 8.6 °F 85% 30.00 in 7.0 mi SW 6.9 mph - N/A Snow Light Snow
9:35 PM 12.2 °F 1.7 °F 8.6 °F 85% 30.00 in 8.0 mi WSW 6.9 mph - N/A   Overcast
9:55 PM 14.0 °F 3.9 °F 8.6 °F 79% 30.00 in 10.0 mi West 6.9 mph - N/A   Overcast
10:15 PM 14.0 °F 3.9 °F 8.6 °F 79% 29.99 in 10.0 mi WSW 6.9 mph - N/A   Mostly Cloudy
10:35 PM 14.0 °F 3.9 °F 8.6 °F 79% 29.99 in 10.0 mi West 6.9 mph - N/A   Mostly Cloudy
10:55 PM 14.0 °F 5.1 °F 8.6 °F 79% 29.99 in 10.0 mi West 5.8 mph - N/A   Overcast
11:15 PM 14.0 °F 5.1 °F 8.6 °F 79% 30.00 in 10.0 mi WSW 5.8 mph - N/A   Overcast
11:35 PM 14.0 °F 2.9 °F 8.6 °F 79% 29.99 in 10.0 mi West 8.1 mph - N/A   Overcast
11:55 PM 14.0 °F 3.9 °F 8.6 °F 79% 29.99 in 10.0 mi West 6.9 mph - N/A   Overcast